Tracking 18784 objects as of 18-August-2017
HD Live streaming from Space Station
objects crossing your sky now

ABS 3

Track ABS 3 now!
ABS 3 is classified as:


NORAD ID: 24901
Int'l Code: 1997-042A
Perigee: 35,811.2 km
Apogee: 35,823.1 km
Inclination: 5.0 °
Period: 1,437.3 minutes
Semi major axis: 42188 km
RCS: 10 m2 (large)
Launch date: August 19, 1997
Source: People's Republic of China (PRC)
Launch site: Xichang Space Center, China (XSC)

Most powerful telecommunications satellite in service in the Asia-Pacific region; 30 C-band, 24 Ku-band transponders; 190 high fidelity channels and 50,000 simultaneous telephone links.
Your satellite tracking list
Your tracking list is empty





NASA's NSSDC Master Catalog

Two Line Element Set (TLE):
1 24901U 97042A   17229.70813226 -.00000147 +00000-0 +00000-0 0  9991
2 24901 004.9968 062.9207 0001403 090.7116 147.7175 01.00188365073208
Source of the keplerian elements: AFSPC